Regional Weather Roundup
Issued by NWS Grand Forks, ND

Home | Current Version | Previous Version | Text Only | Print | Product List | Glossary On
Versions: 1 2 3 4 5 6 7 8 9 10 11 12 13 14 15 16 17 18 19 20 21 22 23 24 25 26 27 28 29 30 31 32 33 34 35 36 37 38 39 40 41 42 43 44 45 46 47 48 49 50
000
ASUS43 KFGF 080910
RWRFGF
PRAIRIE TO PINES  WEATHER ROUNDUP
NATIONAL WEATHER SERVICE EASTERN NORTH DAKOTA/GRAND FORKS ND
300 AM CST THU DEC 08 2016

 **SATELLITE DATA USED TO AUGMENT SKY COVER AT AUTOMATED STATIONS**
 *****  WEATHER ACROSS EASTERN NORTH DAKOTA  *****

CITY           SKY/WX    TMP DP  RH WIND       PRES   REMARKS
GRAND FORKS    LGT SNOW  17  12  80 NW22G29   30.34R WCI   0
GRAND FRKS AFB FLURRIES  15   9  77 N20G28    30.35R WCI  -2
DEVILS LAKE    FLURRIES  10   6  84 NW22      30.39R WCI -10
FARGO          CLOUDY    17  11  77 NW24G33   30.33R WCI  -1
WAHPETON ARPT  CLOUDY    14  10  85 NW23      30.33R WCI  -5
$$

 ***** WEATHER ACROSS CENTRAL AND WESTERN NORTH DAKOTA  *****

CITY           SKY/WX    TMP DP  RH WIND       PRES   REMARKS
BISMARCK       CLOUDY     5   0  79 NW17G25   30.54R WCI -14
MINOT          LGT SNOW   5   0  79 W24       30.51R WCI -17
JAMESTOWN      CLOUDY     6   2  83 NW25G33   30.41R BLWGSNOWWCI -16
MINOT AFB      MOCLDY     3  -2  80 NW28G35   30.50R FOG     WCI -21
GARRISON         N/A      2  -3  80 NW26G36   30.50R WCI -22
WILLISTON      CLOUDY    -1  -9  68 W9        30.62R WCI -16
DICKINSON      CLEAR     -6 -11  79 NW15      30.51R WCI -27
HETTINGER      CLEAR     -3  -9  75 NW16      30.53R WCI -24
$$

 *****  OTHER AIRPORT OBSERVATIONS IN OUR AREA  *****

CITY           SKY/WX    TMP DP  RH WIND       PRES   REMARKS
WALHALLA         N/A     14  14 100 NW21G30   30.38R WCI  -4
GRAFTON AIRPOR FLURRIES  16  12  86 NW23      30.37R WCI  -2
VALLEY CITY AR FLURRIES   9   7  92 NW23G29   30.40R WCI -12
CANDO          CLOUDY    10   7  85 NW16G24   30.44R WCI  -7
CAVALIER APRT  LGT SNOW  16  10  79 NW23G33   30.37R WCI  -2
GWINNER        CLOUDY    12   9  85 NW25G32   30.38R WCI  -8
SHEYENNE NWR     N/A     13   5  71 NW14      29.95S WCI  -2
ROLLA          CLOUDY     7   5  92 NW26G33   30.40R FOG     WCI -16
 ***** THE ABOVE OBSERVATIONS ARE NON NWS ARE NOT QUALITY
       CONTROLLED AND MAY MIS-REPORT RAIN FOR SNOW...
$$

  *****  WEATHER ACROSS NORTHERN MINNESOTA  *****

CITY           SKY/WX    TMP DP  RH WIND       PRES   REMARKS
FLAG ISLAND    CLOUDY    21  16  79 NW23      30.18R WCI   5
WARROAD        LGT SNOW  18  16  93 NW13G22   30.21R WCI   4
ROSEAU         FLURRIES  19  16  86 NW13      30.23R WCI   7
HALLOCK          N/A    N/A N/A N/A NW20      30.32R
THF RVR FALLS  FLURRIES  17  14  88 NW22      30.27R WCI   0
BAUDETTE       LGT SNOW  21  16  81 NW12      30.15R WCI   9
WASKISH        LGT SNOW  18  16  93 NW12G18   30.16R WCI   5
CROOKSTON      LGT SNOW  18  16  93 N22G28    30.31R WCI   0
$$
  *****  WEATHER ACROSS CENTRAL AND WEST MINNESOTA  *****

CITY           SKY/WX    TMP DP  RH WIND       PRES   REMARKS
FOSSTON        CLOUDY    16  12  86 NW15G21   30.23R WCI   1
BEMIDJI        LGT SNOW  17  13  87 NW16      30.16R WCI   1
PARK RAPIDS    FLURRIES  18  10  71 NW16      30.16R WCI   3
ELBOW LAKE     LGT SNOW  13  11  92 NW23G29   30.27R WCI  -6
WADENA         CLOUDY    18  12  79 NW15G28   30.18R WCI   3
DETROIT LAKES  LGT SNOW  19  18  93 NW21G26   30.23R WCI   3
MOORHEAD       MIX PCPN  16  10  79 NW23G29   30.32R WCI  -2
FERGUS FALLS   LGT SNOW  16  12  86 NW24      30.32R WCI  -3
MORRIS MN      LGT SNOW  14  10  85 NW26G33   30.27R WCI  -6
STAPLES        CLOUDY    16  12  86 NW13      30.16R WCI   2
$$
  *****  WEATHER ELSEWHERE ACROSS MINNESOTA  *****

CITY           SKY/WX    TMP DP  RH WIND       PRES   REMARKS
DULUTH         LGT SNOW  22  18  85 NW9       30.00R FOG     WCI  12
INTRNTL FALLS  CLOUDY    19  14  81 NW12      30.10R WCI   7
ELY            MOCLDY    19  18  93 NW8       29.99R WCI   9
CLOQUET        FLURRIES  21  18  86 NW12G18   30.03R WCI   9
WHEATON        CLOUDY    16  12  86 W20G29    30.35R WCI  -1
BRAINERD       CLOUDY    20  14  77 NW15G23   30.14R WCI   6
HIBBING        FLURRIES  19  15  84 NW16      30.04R WCI   4
ALEXANDRIA     LGT SNOW  15  12  88 NW17      30.21R FOG     WCI  -1
SAINT CLOUD    MOCLDY    16  12  84 W15       30.16R WCI   1
MINNEAPOLIS    LGT SNOW  17  11  77 W14G21    30.18R WCI   3
$$

  *****  WEATHER ACROSS SOUTH DAKOTA  *****

CITY           SKY/WX    TMP DP  RH WIND       PRES   REMARKS
SIOUX FALLS    CLOUDY     8   3  80 NW17G29   30.40R WCI -10
BROOKINGS      FLURRIES   7   2  80 NW16G24   30.36R WCI -11
WATERTOWN      CLOUDY     9   4  80 NW22G30   30.34R WCI -11
HURON          MIX PCPN   7   2  80 NW18G30   30.48R WCI -12
SISSETON         N/A     13   8  81 NW26G35   30.34R WCI  -7
ABERDEEN       LGT SNOW  10   3  73 NW25      30.46R WCI -11
MITCHELL       MOCLDY     8   1  73 NW20      30.51R WCI -11
PIERRE         CLOUDY     7   0  73 NW24G33   30.54R WCI -14
MOBRIDGE       CLEAR      6  -2  69 NW20      30.50R WCI -14
RAPID CITY     CLEAR      0  -7  72 N12       30.51R WCI -17
$$

  *****  SOME WEATHER IN NEARBY STATES *****

CITY           SKY/WX    TMP DP  RH WIND       PRES   REMARKS
GLASGOW MT     MOCLDY    -3  -9  75 NW14      30.64R WCI -22
GREAT FALLS MT CLOUDY    -2  -8  76 NE7       30.50S WCI -15
CHEYENNE WY    CLOUDY   -15 -19  82 W6        30.31R WCI -29
SCOTTSBLUFF NE CLOUDY    -6 -12  75 W3        30.51R
OMAHA NE       PTCLDY    14   4  64 NW17G26   30.50R WCI  -3
DES MOINES IA  PTCLDY    15   5  64 NW22      30.38R WCI  -3
DAVENPORT IA   CLOUDY    19  11  70 W23       30.27R WCI   2
CHICAGO IL     FLURRIES  23  14  68 W20G26    30.15R WCI   8
EAU CLAIRE WI  CLOUDY    16  11  80 W12       30.10R WCI   3
LA CROSSE WI   CLOUDY    18   9  68 W17       30.17S WCI   3
$$

  *****  SOME NATIONAL WEATHER *****

CITY           SKY/WX    TMP DP  RH WIND       PRES   REMARKS
LA GUARDIA NY  MOCLDY    44  29  55 W5        29.99F
RALEIGH NC     CLOUDY    49  45  86 CALM      30.02F
ATLANTA GA     CLOUDY    43  38  82 NW13      30.13R
NEW ORLEANS LA CLOUDY    57  56  96 N3        30.17R
OKLAHOMA CITY  MOCLDY    24  18  77 N17       30.58R WCI  11
ALBUQUERQUE NM CLOUDY    28  13  53 E20       30.25R WCI  15
SALT LAKE CITY PTCLDY    20   9  62 S3        30.30S
LOS ANGELES CA CLEAR     53  48  83 CALM      30.17S
BOISE ID       MOCLDY    18  11  74 S13       30.33F WCI   5
SEATTLE WA     PTCLDY    32  14  47 E21G26    30.23F WCI  20
$$

*** WEATHER ACROSS MANITOBA...SASKATCHEWAN AND ONTARIO ***
                ***ONTARIO***

CITY           SKY/WX    TMP DP  RH WIND       PRES   REMARKS
GERALDTON      LGT SNOW  19  16  86 NW12      29.79R DRFTSNOWWCI   7
THUNDER BAY    FLURRIES  25  19  80 NW9       29.91R WCI  15
SIOUX LOOKOUT  FLURRIES  19  16  86 N9G22     30.04R WCI   9
TORONTO        MOCLDY    28  23  80 S6        29.88F WCI  22
BIG TROUT LK   FLURRIES   9   5  85 NW15G22   30.09S WCI  -8
PICKLE LAKE    NOT AVBL
DRYDEN         FLURRIES  18  16  93 N9        30.07R WCI   6
KENORA         LGT SNOW  16  14  93 N14G21    30.15R WCI   1
$$
                *** MANITOBA***

CITY           SKY/WX    TMP DP  RH WIND       PRES   REMARKS
BRANDON        CLOUDY    10   5  79 NW17      30.45R WCI  -7
DAUPHIN        FLURRIES  10   5  79 NW9       30.51R WCI  -2
ISLAND LAKE    NOT AVBL
PILOT MOUND    NOT AVBL
THE PAS        NOT AVBL
THOMPSON       FLURRIES  -8 -13  77 N14       30.53R WCI -28
WINNIPEG       LGT SNOW  16  12  86 NW24      30.35R DRFTSNOWWCI  -3
LYNN LAKE      CLEAR    -15 -18  84 N8        30.62R WCI -32
CHURCHILL      SNOW      -2  -4  92 NW23G30   30.49R VSB 3/8 WCI -26
GILLAM         FLURRIES  -2  -8  78 N17G26    30.44R WCI -24
$$
                ***SASKATCHEWAN***

CITY           SKY/WX    TMP DP  RH WIND       PRES   REMARKS
ESTEVAN        CRYSTALS  -4  -8  84 W16       30.55R WCI -25
KINDERSLEY     FLURRIES  -8 -11  84 W6        30.63S WCI -21
LLOYDMINSTER   PTCLDY   -11 -15  84 NW8       30.66S WCI -28
PRINCE ALBERT  FLURRIES  -4  -9  77 NW9       30.66R WCI -20
REGINA         MOCLDY    -6  -9  84 W9        30.59R WCI -22
YORKTON        FLURRIES   3  -2  78 NW16      30.52S WCI -16
N. BATTLEFORD  CLEAR     -8 -13  77 NW8       30.69R WCI -23
LA RONGE       FLURRIES -11 -17  77 NW6       30.69S WCI -25
SASKATOON      CRYSTALS  -6 -11  77 N5        30.67S WCI -17
SWIFT CURRENT  FLURRIES  -8 -11  84 W7        30.57R WCI -22
$$
NOTE: THESE ARE AUTOMATED STATIONS WITH LIMITED QUALITY CONTROL
      "FAIR" INDICATES FEW OR NO CLOUDS BELOW 12,000 FEET WITH NO
      SIGNIFICANT WEATHER AND/OR OBSTRUCTIONS TO VISIBILITY.
      SKY/WX - SKY CONDITION AND SIGNIFICANT WEATHER.
      TMP - AIR TEMPERATURE.    DP   - DEWPOINT TEMPERATURE.
      RH  - RELATIVE HUMIDITY.  PRES - PRESSURE.
      HX  - HEAT INDEX.         WCI  - WIND CHILL INDEX.
$



USA.gov is the U.S. government's official web portal to all federal, state and local government web resources and services.